Time,TemperatureF,DewpointF,PressureIn,WindDirection,WindDirectionDegrees,WindSpeedMPH,WindSpeedGustMPH,Humidity,HourlyPrecipIn,Conditions,Clouds,dailyrainin,SoftwareType,DateUTC
2013-01-15 00:02:00,21.7,17.0,30.29,NNE,23,0.0,0.0,82,0.00,,,0.00,WUHU216HW,2013-01-15 05:02:00,
2013-01-15 00:07:00,21.7,17.3,30.29,NW,315,0.0,0.0,83,0.00,,,0.00,WUHU216HW,2013-01-15 05:07:00,
2013-01-15 00:12:00,21.5,17.1,30.28,NW,315,0.0,0.0,83,0.00,,,0.00,WUHU216HW,2013-01-15 05:12:00,
2013-01-15 00:17:00,21.5,17.1,30.28,North,0,0.0,0.0,83,0.00,,,0.00,WUHU216HW,2013-01-15 05:17:00,
2013-01-15 00:22:00,21.5,17.1,30.28,North,0,1.3,1.3,83,0.00,,,0.00,WUHU216HW,2013-01-15 05:22:00,
2013-01-15 00:27:00,21.5,17.1,30.28,NNW,338,0.0,5.5,83,0.00,,,0.00,WUHU216HW,2013-01-15 05:27:00,
2013-01-15 00:32:00,21.5,17.1,30.28,North,0,0.0,5.5,83,0.00,,,0.00,WUHU216HW,2013-01-15 05:32:00,
2013-01-15 00:37:00,21.7,17.3,30.28,North,0,0.0,1.1,83,0.00,,,0.00,WUHU216HW,2013-01-15 05:37:00,
2013-01-15 00:42:00,21.7,17.3,30.28,North,0,0.0,0.0,83,0.00,,,0.00,WUHU216HW,2013-01-15 05:42:00,
2013-01-15 00:47:00,21.7,17.3,30.28,North,0,0.0,0.0,83,0.00,,,0.00,WUHU216HW,2013-01-15 05:47:00,
2013-01-15 00:52:00,21.7,17.3,30.28,North,0,0.0,0.0,83,0.00,,,0.00,WUHU216HW,2013-01-15 05:52:00,
2013-01-15 00:57:00,21.7,17.3,30.28,North,0,0.8,0.8,83,0.00,,,0.00,WUHU216HW,2013-01-15 05:57:00,
2013-01-15 01:02:00,21.7,17.3,30.28,North,0,0.0,2.0,83,0.00,,,0.00,WUHU216HW,2013-01-15 06:02:00,
2013-01-15 01:07:00,21.7,17.3,30.28,NNE,23,0.0,2.0,83,0.00,,,0.00,WUHU216HW,2013-01-15 06:07:00,
2013-01-15 01:12:00,21.7,17.3,30.28,NNE,23,0.0,0.0,83,0.00,,,0.00,WUHU216HW,2013-01-15 06:12:00,
2013-01-15 01:17:00,21.7,17.3,30.27,North,0,0.0,0.0,83,0.00,,,0.00,WUHU216HW,2013-01-15 06:17:00,
2013-01-15 01:22:00,21.7,17.3,30.27,NNE,23,0.0,0.0,83,0.00,,,0.00,WUHU216HW,2013-01-15 06:22:00,
2013-01-15 01:27:00,21.5,17.1,30.27,NNW,338,0.0,0.0,83,0.00,,,0.00,WUHU216HW,2013-01-15 06:27:00,
2013-01-15 01:32:00,21.5,17.1,30.27,NNW,338,0.0,0.0,83,0.00,,,0.00,WUHU216HW,2013-01-15 06:32:00,
2013-01-15 01:37:00,21.5,17.1,30.27,NW,315,0.0,0.0,83,0.00,,,0.00,WUHU216HW,2013-01-15 06:37:00,
2013-01-15 01:42:00,21.3,16.9,30.27,WNW,293,0.0,0.0,83,0.00,,,0.00,WUHU216HW,2013-01-15 06:42:00,
2013-01-15 01:47:00,21.3,16.9,30.27,NW,315,0.0,0.0,83,0.00,,,0.00,WUHU216HW,2013-01-15 06:47:00,
2013-01-15 01:52:00,21.3,16.9,30.27,NNW,338,0.0,0.0,83,0.00,,,0.00,WUHU216HW,2013-01-15 06:52:00,
2013-01-15 01:57:00,21.3,16.9,30.27,NE,45,0.0,1.5,83,0.00,,,0.00,WUHU216HW,2013-01-15 06:57:00,
2013-01-15 02:02:00,21.3,16.9,30.27,NE,45,0.0,1.5,83,0.00,,,0.00,WUHU216HW,2013-01-15 07:02:00,
2013-01-15 02:07:00,21.3,16.9,30.27,NE,45,0.0,0.0,83,0.00,,,0.00,WUHU216HW,2013-01-15 07:07:00,
2013-01-15 02:12:00,21.3,16.9,30.27,NE,45,0.0,0.0,83,0.00,,,0.00,WUHU216HW,2013-01-15 07:12:00,
2013-01-15 02:17:00,21.3,16.9,30.27,NE,45,0.0,0.0,83,0.00,,,0.00,WUHU216HW,2013-01-15 07:17:00,
2013-01-15 02:22:00,21.3,16.9,30.27,NE,45,0.0,0.0,83,0.00,,,0.00,WUHU216HW,2013-01-15 07:22:00,
2013-01-15 02:27:00,21.0,16.6,30.27,NE,45,0.0,0.0,83,0.00,,,0.00,WUHU216HW,2013-01-15 07:27:00,
2013-01-15 02:32:00,21.0,16.6,30.27,NE,45,0.0,0.0,83,0.00,,,0.00,WUHU216HW,2013-01-15 07:32:00,
2013-01-15 02:37:00,21.0,16.8,30.27,NE,45,0.0,0.0,84,0.00,,,0.00,WUHU216HW,2013-01-15 07:37:00,
2013-01-15 02:42:00,21.0,16.8,30.27,NE,45,0.0,0.0,84,0.00,,,0.00,WUHU216HW,2013-01-15 07:42:00,
2013-01-15 02:47:00,21.0,16.8,30.27,NE,45,0.0,0.0,84,0.00,,,0.00,WUHU216HW,2013-01-15 07:47:00,
2013-01-15 02:52:00,21.0,16.8,30.27,NNW,338,0.0,0.0,84,0.00,,,0.00,WUHU216HW,2013-01-15 07:52:00,
2013-01-15 02:57:00,21.0,16.8,30.27,NNW,338,0.0,0.0,84,0.00,,,0.00,WUHU216HW,2013-01-15 07:57:00,
2013-01-15 03:02:00,20.8,16.7,30.27,NNW,338,0.0,0.0,84,0.00,,,0.00,WUHU216HW,2013-01-15 08:02:00,
2013-01-15 03:07:00,20.8,16.7,30.27,NNW,338,0.0,0.0,84,0.00,,,0.00,WUHU216HW,2013-01-15 08:07:00,
2013-01-15 03:12:00,20.8,16.7,30.27,NNW,338,0.0,0.0,84,0.00,,,0.00,WUHU216HW,2013-01-15 08:12:00,
2013-01-15 03:17:00,20.8,16.7,30.27,NNW,338,0.0,1.7,84,0.00,,,0.00,WUHU216HW,2013-01-15 08:17:00,
2013-01-15 03:22:00,20.8,16.7,30.27,NNW,338,0.0,1.7,84,0.00,,,0.00,WUHU216HW,2013-01-15 08:22:00,
2013-01-15 03:27:00,20.8,16.7,30.27,NNW,338,0.8,0.8,84,0.00,,,0.00,WUHU216HW,2013-01-15 08:27:00,
2013-01-15 03:32:00,20.8,16.5,30.27,NNE,23,0.0,0.8,84,0.00,,,0.00,WUHU216HW,2013-01-15 08:32:00,
2013-01-15 03:37:00,20.8,16.7,30.27,NNE,23,0.0,0.0,84,0.00,,,0.00,WUHU216HW,2013-01-15 08:37:00,
2013-01-15 03:42:00,20.4,16.3,30.27,NNE,23,0.0,0.0,84,0.00,,,0.00,WUHU216HW,2013-01-15 08:42:00,
2013-01-15 03:47:00,20.4,16.3,30.26,NNE,23,0.0,0.0,84,0.00,,,0.00,WUHU216HW,2013-01-15 08:47:00,
2013-01-15 03:52:00,20.4,16.3,30.26,NNE,23,0.0,0.0,84,0.00,,,0.00,WUHU216HW,2013-01-15 08:52:00,
2013-01-15 03:57:00,20.4,16.3,30.26,NNE,23,0.0,0.0,84,0.00,,,0.00,WUHU216HW,2013-01-15 08:57:00,
2013-01-15 04:02:00,20.4,16.3,30.27,NNE,23,2.0,2.0,84,0.00,,,0.00,WUHU216HW,2013-01-15 09:02:00,
2013-01-15 04:07:00,20.4,16.3,30.27,NNE,23,0.0,2.0,84,0.00,,,0.00,WUHU216HW,2013-01-15 09:07:00,
2013-01-15 04:12:00,20.4,16.3,30.26,NNW,338,0.0,2.0,84,0.00,,,0.00,WUHU216HW,2013-01-15 09:12:00,
2013-01-15 04:17:00,20.4,16.3,30.26,NW,315,0.0,0.0,84,0.00,,,0.00,WUHU216HW,2013-01-15 09:17:00,
2013-01-15 04:22:00,20.4,16.3,30.26,NW,315,0.0,0.0,84,0.00,,,0.00,WUHU216HW,2013-01-15 09:22:00,
2013-01-15 04:27:00,20.4,16.3,30.26,NNW,338,0.0,0.0,84,0.00,,,0.00,WUHU216HW,2013-01-15 09:27:00,
2013-01-15 04:32:00,20.4,16.3,30.27,NNW,338,0.0,0.0,84,0.00,,,0.00,WUHU216HW,2013-01-15 09:32:00,
2013-01-15 04:37:00,20.4,16.3,30.27,North,0,4.0,4.0,84,0.00,,,0.00,WUHU216HW,2013-01-15 09:37:00,
2013-01-15 04:42:00,20.3,16.1,30.26,North,0,0.0,4.0,84,0.00,,,0.00,WUHU216HW,2013-01-15 09:42:00,
2013-01-15 04:47:00,20.3,16.1,30.26,North,0,0.0,4.0,84,0.00,,,0.00,WUHU216HW,2013-01-15 09:47:00,
2013-01-15 04:52:00,20.3,16.1,30.26,North,0,0.0,0.0,84,0.00,,,0.00,WUHU216HW,2013-01-15 09:52:00,
2013-01-15 04:57:00,20.3,16.1,30.26,NNW,338,3.3,3.3,84,0.00,,,0.00,WUHU216HW,2013-01-15 09:57:00,
2013-01-15 05:02:00,20.1,15.9,30.26,North,0,0.0,3.3,84,0.00,,,0.00,WUHU216HW,2013-01-15 10:02:00,
2013-01-15 05:07:00,20.3,16.1,30.26,North,0,1.7,1.7,84,0.00,,,0.00,WUHU216HW,2013-01-15 10:07:00,
2013-01-15 05:12:00,20.1,15.9,30.26,NNW,338,0.0,1.7,84,0.00,,,0.00,WUHU216HW,2013-01-15 10:12:00,
2013-01-15 05:17:00,20.1,15.9,30.26,NNW,338,0.0,2.2,84,0.00,,,0.00,WUHU216HW,2013-01-15 10:17:00,
2013-01-15 05:22:00,20.1,15.9,30.26,NNW,338,0.0,2.2,84,0.00,,,0.00,WUHU216HW,2013-01-15 10:22:00,
2013-01-15 05:27:00,20.1,15.9,30.26,NNW,338,0.0,0.0,84,0.00,,,0.00,WUHU216HW,2013-01-15 10:27:00,
2013-01-15 05:32:00,20.1,15.9,30.25,NNE,23,0.0,0.0,84,0.00,,,0.00,WUHU216HW,2013-01-15 10:32:00,
2013-01-15 05:37:00,20.1,15.9,30.25,NNE,23,0.0,0.0,84,0.00,,,0.00,WUHU216HW,2013-01-15 10:37:00,
2013-01-15 05:42:00,20.1,15.9,30.25,NNE,23,0.0,0.0,84,0.00,,,0.00,WUHU216HW,2013-01-15 10:42:00,
2013-01-15 05:47:00,19.9,15.9,30.26,North,0,0.0,0.0,84,0.00,,,0.00,WUHU216HW,2013-01-15 10:47:00,
2013-01-15 05:52:00,20.1,15.9,30.26,NNW,338,0.0,2.6,84,0.00,,,0.00,WUHU216HW,2013-01-15 10:52:00,
2013-01-15 05:57:00,20.1,15.9,30.26,NNW,338,7.1,7.1,84,0.00,,,0.00,WUHU216HW,2013-01-15 10:57:00,
2013-01-15 06:02:00,20.1,15.9,30.26,NNE,23,0.0,7.1,84,0.00,,,0.00,WUHU216HW,2013-01-15 11:02:00,
2013-01-15 06:07:00,20.1,15.9,30.26,NNE,23,0.0,4.0,84,0.00,,,0.00,WUHU216HW,2013-01-15 11:07:00,
2013-01-15 06:13:00,20.1,15.9,30.25,North,0,0.0,0.0,84,0.00,,,0.00,WUHU216HW,2013-01-15 11:13:00,
2013-01-15 06:18:00,20.1,15.9,30.26,North,0,0.0,0.0,84,0.00,,,0.00,WUHU216HW,2013-01-15 11:18:00,
2013-01-15 06:23:00,20.1,16.2,30.26,North,0,0.0,0.0,85,0.00,,,0.00,WUHU216HW,2013-01-15 11:23:00,
2013-01-15 06:28:00,20.1,16.2,30.26,NNE,23,0.0,2.0,85,0.00,,,0.00,WUHU216HW,2013-01-15 11:28:00,
2013-01-15 06:33:00,20.1,16.2,30.26,NE,45,1.7,2.0,85,0.00,,,0.00,WUHU216HW,2013-01-15 11:33:00,
2013-01-15 06:38:00,20.3,16.4,30.26,NE,45,0.0,1.7,85,0.00,,,0.00,WUHU216HW,2013-01-15 11:38:00,
2013-01-15 06:43:00,20.3,16.4,30.26,NNE,23,0.0,1.7,85,0.00,,,0.00,WUHU216HW,2013-01-15 11:43:00,
2013-01-15 06:48:00,20.3,16.4,30.26,NE,45,0.0,0.6,85,0.00,,,0.00,WUHU216HW,2013-01-15 11:48:00,
2013-01-15 06:53:00,20.3,16.4,30.26,NE,45,0.0,0.0,85,0.00,,,0.00,WUHU216HW,2013-01-15 11:53:00,
2013-01-15 06:58:00,20.4,16.6,30.26,NE,45,0.0,0.0,85,0.00,,,0.00,WUHU216HW,2013-01-15 11:58:00,
2013-01-15 07:03:00,20.4,16.6,30.26,ENE,68,0.0,0.0,85,0.00,,,0.00,WUHU216HW,2013-01-15 12:03:00,
2013-01-15 07:08:00,20.4,16.6,30.26,ENE,68,0.0,0.0,85,0.00,,,0.00,WUHU216HW,2013-01-15 12:08:00,
2013-01-15 07:13:00,20.4,16.6,30.26,ENE,68,0.0,0.0,85,0.00,,,0.00,WUHU216HW,2013-01-15 12:13:00,
2013-01-15 07:18:00,20.4,16.6,30.26,ENE,68,0.0,3.5,85,0.00,,,0.00,WUHU216HW,2013-01-15 12:18:00,
2013-01-15 07:23:00,20.4,16.6,30.26,ENE,68,0.0,3.5,85,0.00,,,0.00,WUHU216HW,2013-01-15 12:23:00,
2013-01-15 07:28:00,20.4,16.6,30.26,ESE,113,0.0,0.0,85,0.00,,,0.00,WUHU216HW,2013-01-15 12:28:00,
2013-01-15 07:33:00,20.4,16.6,30.26,NNW,338,5.1,5.1,85,0.00,,,0.00,WUHU216HW,2013-01-15 12:33:00,
2013-01-15 07:38:00,20.4,16.6,30.27,ENE,68,0.0,5.1,85,0.00,,,0.00,WUHU216HW,2013-01-15 12:38:00,
2013-01-15 07:43:00,20.8,16.9,30.26,ENE,68,0.0,5.1,85,0.00,,,0.00,WUHU216HW,2013-01-15 12:43:00,
2013-01-15 07:48:00,20.8,16.9,30.26,NE,45,0.0,2.6,85,0.00,,,0.00,WUHU216HW,2013-01-15 12:48:00,
2013-01-15 07:53:00,20.8,16.9,30.25,NNE,23,0.0,0.0,85,0.00,,,0.00,WUHU216HW,2013-01-15 12:53:00,
2013-01-15 07:58:00,20.8,16.9,30.25,SSW,203,1.5,1.5,85,0.00,,,0.00,WUHU216HW,2013-01-15 12:58:00,
2013-01-15 08:03:00,20.8,16.9,30.25,NE,45,0.0,1.5,85,0.00,,,0.00,WUHU216HW,2013-01-15 13:03:00,
2013-01-15 08:08:00,20.8,16.9,30.25,NE,45,0.0,0.0,85,0.00,,,0.00,WUHU216HW,2013-01-15 13:08:00,
2013-01-15 08:13:00,20.8,16.9,30.25,NE,45,1.7,1.7,85,0.00,,,0.00,WUHU216HW,2013-01-15 13:13:00,
2013-01-15 08:18:00,20.8,16.9,30.25,NNE,23,0.0,1.7,85,0.00,,,0.00,WUHU216HW,2013-01-15 13:18:00,
2013-01-15 08:23:00,20.8,16.9,30.25,ENE,68,6.9,6.9,85,0.00,,,0.00,WUHU216HW,2013-01-15 13:23:00,
2013-01-15 08:28:00,21.0,17.1,30.25,NE,45,0.0,6.9,85,0.00,,,0.00,WUHU216HW,2013-01-15 13:28:00,
2013-01-15 08:33:00,21.0,17.1,30.25,ENE,68,0.0,6.9,85,0.00,,,0.00,WUHU216HW,2013-01-15 13:33:00,
2013-01-15 08:38:00,21.0,17.1,30.25,NE,45,1.3,1.3,85,0.00,,,0.00,WUHU216HW,2013-01-15 13:38:00,
2013-01-15 08:43:00,21.2,17.3,30.25,East,90,2.9,4.0,85,0.00,,,0.00,WUHU216HW,2013-01-15 13:43:00,
2013-01-15 08:48:00,21.3,17.5,30.24,ENE,68,0.0,4.4,85,0.00,,,0.00,WUHU216HW,2013-01-15 13:48:00,
2013-01-15 08:53:00,21.3,17.5,30.25,ENE,68,0.0,4.4,85,0.00,,,0.00,WUHU216HW,2013-01-15 13:53:00,
2013-01-15 08:58:00,21.3,17.5,30.25,NE,45,0.0,0.2,85,0.00,,,0.00,WUHU216HW,2013-01-15 13:58:00,
2013-01-15 09:03:00,21.5,17.5,30.25,NE,45,0.0,0.2,85,0.00,,,0.00,WUHU216HW,2013-01-15 14:03:00,
2013-01-15 09:08:00,21.5,17.6,30.25,ENE,68,0.0,0.4,85,0.00,,,0.00,WUHU216HW,2013-01-15 14:08:00,
2013-01-15 09:13:00,21.5,17.6,30.25,ESE,113,0.0,0.4,85,0.00,,,0.00,WUHU216HW,2013-01-15 14:13:00,
2013-01-15 09:18:00,21.7,17.8,30.26,ENE,68,0.0,0.0,85,0.00,,,0.00,WUHU216HW,2013-01-15 14:18:00,
2013-01-15 09:23:00,21.9,18.0,30.26,NE,45,2.4,2.4,85,0.00,,,0.00,WUHU216HW,2013-01-15 14:23:00,
2013-01-15 09:28:00,21.9,18.0,30.26,NE,45,0.0,2.4,85,0.00,,,0.00,WUHU216HW,2013-01-15 14:28:00,
2013-01-15 09:33:00,22.1,18.2,30.27,NNE,23,3.3,3.3,85,0.00,,,0.00,WUHU216HW,2013-01-15 14:33:00,
2013-01-15 09:38:00,22.2,18.4,30.27,NNE,23,0.0,3.3,85,0.00,,,0.00,WUHU216HW,2013-01-15 14:38:00,
2013-01-15 09:43:00,22.4,18.5,30.27,ENE,68,0.0,1.7,85,0.00,,,0.00,WUHU216HW,2013-01-15 14:43:00,
2013-01-15 09:48:00,22.8,18.9,30.28,NNE,23,0.0,2.0,85,0.00,,,0.00,WUHU216HW,2013-01-15 14:48:00,
2013-01-15 09:53:00,22.8,18.9,30.28,ENE,68,0.0,2.0,85,0.00,,,0.00,WUHU216HW,2013-01-15 14:53:00,
2013-01-15 09:58:00,23.1,19.3,30.27,NNE,23,0.0,0.0,85,0.00,,,0.00,WUHU216HW,2013-01-15 14:58:00,
2013-01-15 10:03:00,23.3,19.4,30.27,NE,45,0.0,3.1,85,0.00,,,0.00,WUHU216HW,2013-01-15 15:03:00,
2013-01-15 10:08:00,23.5,19.6,30.27,NNE,23,0.0,3.1,85,0.00,,,0.00,WUHU216HW,2013-01-15 15:08:00,
2013-01-15 10:13:00,24.0,20.2,30.27,ENE,68,1.7,1.7,85,0.00,,,0.00,WUHU216HW,2013-01-15 15:13:00,
2013-01-15 10:18:00,24.0,20.2,30.27,North,0,1.7,1.7,85,0.00,,,0.00,WUHU216HW,2013-01-15 15:18:00,
2013-01-15 10:23:00,24.2,20.3,30.26,East,90,0.0,1.7,85,0.00,,,0.00,WUHU216HW,2013-01-15 15:23:00,
2013-01-15 10:28:00,24.4,20.5,30.26,NNE,23,0.0,1.7,85,0.00,,,0.00,WUHU216HW,2013-01-15 15:28:00,
2013-01-15 10:33:00,24.6,20.7,30.26,ESE,113,0.0,3.8,85,0.00,,,0.00,WUHU216HW,2013-01-15 15:33:00,
2013-01-15 10:38:00,24.9,21.0,30.26,ENE,68,4.2,4.2,85,0.00,,,0.00,WUHU216HW,2013-01-15 15:38:00,
2013-01-15 10:43:00,25.3,21.4,30.26,ENE,68,0.0,4.2,85,0.00,,,0.00,WUHU216HW,2013-01-15 15:43:00,
2013-01-15 10:48:00,25.5,21.3,30.26,NE,45,0.0,0.0,84,0.00,,,0.00,WUHU216HW,2013-01-15 15:48:00,
2013-01-15 10:53:00,25.8,21.6,30.25,NNE,23,5.3,5.3,84,0.00,,,0.00,WUHU216HW,2013-01-15 15:53:00,
2013-01-15 10:58:00,26.2,22.0,30.25,NE,45,5.1,5.3,84,0.00,,,0.00,WUHU216HW,2013-01-15 15:58:00,
2013-01-15 11:03:00,26.4,22.1,30.24,NE,45,0.0,5.1,84,0.00,,,0.00,WUHU216HW,2013-01-15 16:03:00,
2013-01-15 11:08:00,26.6,22.0,30.23,ENE,68,1.3,5.1,83,0.00,,,0.00,WUHU216HW,2013-01-15 16:08:00,
2013-01-15 11:13:00,26.9,22.4,30.22,ESE,113,6.4,6.4,83,0.00,,,0.00,WUHU216HW,2013-01-15 16:13:00,
2013-01-15 11:18:00,27.1,22.6,30.22,ENE,68,2.2,6.4,83,0.00,,,0.00,WUHU216HW,2013-01-15 16:18:00,
2013-01-15 11:23:00,27.3,22.7,30.22,ENE,68,0.0,6.4,83,0.00,,,0.00,WUHU216HW,2013-01-15 16:23:00,
2013-01-15 11:28:00,27.5,22.6,30.22,NE,45,0.0,4.9,82,0.00,,,0.00,WUHU216HW,2013-01-15 16:28:00,
2013-01-15 11:33:00,27.5,22.6,30.20,ENE,68,0.0,4.9,82,0.00,,,0.00,WUHU216HW,2013-01-15 16:33:00,
2013-01-15 11:38:00,27.6,22.8,30.20,NE,45,1.5,1.5,82,0.00,,,0.00,WUHU216HW,2013-01-15 16:38:00,
2013-01-15 11:43:00,28.2,23.3,30.21,NE,45,0.0,1.5,82,0.00,,,0.00,WUHU216HW,2013-01-15 16:43:00,
2013-01-15 11:48:00,28.5,23.7,30.21,ENE,68,0.0,0.0,82,0.00,,,0.00,WUHU216HW,2013-01-15 16:48:00,
2013-01-15 11:53:00,28.9,24.1,30.21,ENE,68,0.0,0.0,82,0.00,,,0.00,WUHU216HW,2013-01-15 16:53:00,
2013-01-15 11:58:00,29.4,24.6,30.20,ESE,113,5.8,5.8,82,0.00,,,0.00,WUHU216HW,2013-01-15 16:58:00,
2013-01-15 12:03:00,30.0,24.9,30.19,ENE,68,3.1,5.8,81,0.00,,,0.00,WUHU216HW,2013-01-15 17:03:00,
2013-01-15 12:08:00,30.0,24.9,30.19,ENE,68,0.0,5.8,81,0.00,,,0.00,WUHU216HW,2013-01-15 17:08:00,
2013-01-15 12:13:00,30.0,24.6,30.19,ENE,68,0.8,3.1,80,0.00,,,0.00,WUHU216HW,2013-01-15 17:13:00,
2013-01-15 12:18:00,30.0,24.6,30.19,SE,135,1.1,2.9,80,0.00,,,0.00,WUHU216HW,2013-01-15 17:18:00,
2013-01-15 12:23:00,30.0,24.6,30.18,ENE,68,4.9,4.9,80,0.00,,,0.00,WUHU216HW,2013-01-15 17:23:00,
2013-01-15 12:28:00,30.3,24.9,30.19,ESE,113,0.0,4.9,80,0.00,,,0.00,WUHU216HW,2013-01-15 17:28:00,
2013-01-15 12:33:00,30.7,25.3,30.19,NE,45,1.3,4.6,80,0.00,,,0.00,WUHU216HW,2013-01-15 17:33:00,
2013-01-15 12:38:00,30.9,25.5,30.19,ESE,113,0.8,1.3,80,0.00,,,0.00,WUHU216HW,2013-01-15 17:38:00,
2013-01-15 12:43:00,31.2,25.5,30.18,NNE,23,2.2,2.2,79,0.00,,,0.00,WUHU216HW,2013-01-15 17:43:00,
2013-01-15 12:48:00,31.6,25.9,30.17,East,90,0.0,2.2,79,0.00,,,0.00,WUHU216HW,2013-01-15 17:48:00,
2013-01-15 12:53:00,31.8,26.0,30.17,ENE,68,5.1,5.1,79,0.00,,,0.00,WUHU216HW,2013-01-15 17:53:00,
2013-01-15 12:58:00,32.1,26.1,30.16,East,90,5.1,5.1,78,0.00,,,0.00,WUHU216HW,2013-01-15 17:58:00,
2013-01-15 13:03:00,32.3,25.9,30.15,SE,135,3.5,6.0,77,0.00,,,0.00,WUHU216HW,2013-01-15 18:03:00,
2013-01-15 13:08:00,32.5,26.1,30.15,ESE,113,1.7,6.0,77,0.00,,,0.00,WUHU216HW,2013-01-15 18:08:00,
2013-01-15 13:13:00,33.0,26.4,30.14,ESE,113,2.4,3.5,77,0.00,,,0.00,WUHU216HW,2013-01-15 18:13:00,
2013-01-15 13:18:00,33.4,26.6,30.14,East,90,1.3,4.2,76,0.00,,,0.00,WUHU216HW,2013-01-15 18:18:00,
2013-01-15 13:23:00,33.4,26.6,30.14,NE,45,0.0,4.2,76,0.00,,,0.00,WUHU216HW,2013-01-15 18:23:00,
2013-01-15 13:28:00,33.6,26.7,30.13,NE,45,0.0,9.8,76,0.00,,,0.00,WUHU216HW,2013-01-15 18:28:00,
2013-01-15 13:33:00,33.4,26.6,30.14,ENE,68,0.0,9.8,76,0.00,,,0.00,WUHU216HW,2013-01-15 18:33:00,
2013-01-15 13:38:00,33.6,26.7,30.13,ENE,68,7.6,7.6,76,0.00,,,0.00,WUHU216HW,2013-01-15 18:38:00,
2013-01-15 13:43:00,33.6,26.4,30.13,ESE,113,6.0,7.6,75,0.00,,,0.00,WUHU216HW,2013-01-15 18:43:00,
2013-01-15 13:48:00,33.6,26.4,30.13,East,90,2.4,6.0,75,0.00,,,0.00,WUHU216HW,2013-01-15 18:48:00,
2013-01-15 13:53:00,33.6,26.4,30.13,East,90,2.4,6.0,75,0.00,,,0.00,WUHU216HW,2013-01-15 18:53:00,
2013-01-15 13:58:00,33.6,26.4,30.13,ESE,113,0.0,2.4,75,0.00,,,0.00,WUHU216HW,2013-01-15 18:58:00,
2013-01-15 14:03:00,33.6,26.4,30.14,East,90,0.0,1.5,75,0.00,,,0.00,WUHU216HW,2013-01-15 19:03:00,
2013-01-15 14:08:00,33.8,26.6,30.15,East,90,1.5,1.5,75,0.00,,,0.00,WUHU216HW,2013-01-15 19:08:00,
2013-01-15 14:13:00,33.8,26.2,30.14,ESE,113,0.0,1.5,74,0.00,,,0.00,WUHU216HW,2013-01-15 19:13:00,
2013-01-15 14:18:00,33.8,26.2,30.14,East,90,0.0,0.0,74,0.00,,,0.00,WUHU216HW,2013-01-15 19:18:00,
2013-01-15 14:23:00,33.6,26.1,30.11,NE,45,0.0,0.0,74,0.00,,,0.00,WUHU216HW,2013-01-15 19:23:00,
2013-01-15 14:28:00,33.4,25.9,30.11,NE,45,0.0,1.5,74,0.00,,,0.00,WUHU216HW,2013-01-15 19:28:00,
2013-01-15 14:33:00,33.2,25.4,30.12,NE,45,0.0,1.5,73,0.00,,,0.00,WUHU216HW,2013-01-15 19:33:00,
2013-01-15 14:38:00,33.0,25.6,30.14,NE,45,0.0,0.0,74,0.00,,,0.00,WUHU216HW,2013-01-15 19:38:00,
2013-01-15 14:43:00,32.9,25.1,30.14,North,0,0.0,5.1,73,0.00,,,0.00,WUHU216HW,2013-01-15 19:43:00,
2013-01-15 14:48:00,32.7,24.9,30.14,NNW,338,0.0,5.1,73,0.00,,,0.00,WUHU216HW,2013-01-15 19:48:00,
2013-01-15 14:53:00,32.5,24.8,30.15,East,90,0.0,1.3,73,0.00,,,0.00,WUHU216HW,2013-01-15 19:53:00,
2013-01-15 14:58:00,32.5,24.8,30.16,NNE,23,0.0,4.2,73,0.00,,,0.00,WUHU216HW,2013-01-15 19:58:00,
2013-01-15 15:03:00,32.5,24.8,30.16,NNE,23,0.0,4.2,73,0.00,,,0.00,WUHU216HW,2013-01-15 20:03:00,
2013-01-15 15:08:00,32.3,24.6,30.14,NNE,23,0.0,0.0,73,0.00,,,0.00,WUHU216HW,2013-01-15 20:08:00,
2013-01-15 15:13:00,32.3,24.6,30.15,NNE,23,0.0,0.0,73,0.00,,,0.00,WUHU216HW,2013-01-15 20:13:00,
2013-01-15 15:18:00,32.1,24.4,30.14,NNE,23,0.0,0.0,73,0.00,,,0.00,WUHU216HW,2013-01-15 20:18:00,
2013-01-15 15:23:00,32.3,24.6,30.14,NE,45,0.0,0.0,73,0.00,,,0.00,WUHU216HW,2013-01-15 20:23:00,
2013-01-15 15:28:00,32.3,24.6,30.14,ENE,68,0.0,0.0,73,0.00,,,0.00,WUHU216HW,2013-01-15 20:28:00,
2013-01-15 15:33:00,32.3,24.9,30.14,ENE,68,0.0,0.0,74,0.00,,,0.00,WUHU216HW,2013-01-15 20:33:00,
2013-01-15 15:38:00,32.3,24.6,30.14,ENE,68,0.0,0.0,73,0.00,,,0.00,WUHU216HW,2013-01-15 20:38:00,
2013-01-15 15:43:00,32.1,24.4,30.16,ENE,68,0.0,0.0,73,0.00,,,0.00,WUHU216HW,2013-01-15 20:43:00,
2013-01-15 15:48:00,32.1,24.4,30.16,ENE,68,0.0,0.0,73,0.00,,,0.00,WUHU216HW,2013-01-15 20:48:00,
2013-01-15 15:53:00,32.1,24.4,30.16,ENE,68,0.0,0.0,73,0.00,,,0.00,WUHU216HW,2013-01-15 20:53:00,
2013-01-15 15:58:00,32.1,24.8,30.15,ENE,68,0.0,0.0,74,0.00,,,0.00,WUHU216HW,2013-01-15 20:58:00,
2013-01-15 16:03:00,32.1,24.8,30.15,ENE,68,0.0,0.0,74,0.00,,,0.00,WUHU216HW,2013-01-15 21:03:00,
2013-01-15 16:08:00,32.1,24.8,30.14,ENE,68,0.0,0.0,74,0.00,,,0.00,WUHU216HW,2013-01-15 21:08:00,
2013-01-15 16:13:00,32.1,24.8,30.13,ENE,68,0.0,0.0,74,0.00,,,0.00,WUHU216HW,2013-01-15 21:13:00,
2013-01-15 16:18:00,31.8,24.4,30.13,NE,45,0.0,0.0,74,0.00,,,0.00,WUHU216HW,2013-01-15 21:18:00,
2013-01-15 16:23:00,32.1,24.8,30.12,NE,45,0.0,0.0,74,0.00,,,0.00,WUHU216HW,2013-01-15 21:23:00,
2013-01-15 16:28:00,31.8,24.4,30.12,NNE,23,0.0,0.0,74,0.00,,,0.00,WUHU216HW,2013-01-15 21:28:00,
2013-01-15 16:33:00,31.8,24.4,30.12,NNE,23,3.1,3.1,74,0.00,,,0.00,WUHU216HW,2013-01-15 21:33:00,
2013-01-15 16:38:00,31.8,24.4,30.11,NNE,23,3.5,3.5,74,0.00,,,0.00,WUHU216HW,2013-01-15 21:38:00,
2013-01-15 16:43:00,31.8,24.4,30.09,NE,45,0.0,3.5,74,0.00,,,0.00,WUHU216HW,2013-01-15 21:43:00,
2013-01-15 16:48:00,31.8,24.4,30.10,NE,45,0.0,0.0,74,0.00,,,0.00,WUHU216HW,2013-01-15 21:48:00,
2013-01-15 16:53:00,31.8,24.4,30.12,North,0,0.0,0.0,74,0.00,,,0.00,WUHU216HW,2013-01-15 21:53:00,
2013-01-15 16:58:00,31.6,24.2,30.13,NNE,23,0.0,0.0,74,0.00,,,0.00,WUHU216HW,2013-01-15 21:58:00,
2013-01-15 17:03:00,31.6,24.2,30.13,North,0,0.0,0.0,74,0.00,,,0.00,WUHU216HW,2013-01-15 22:03:00,
2013-01-15 17:08:00,31.6,24.2,30.12,ENE,68,0.0,0.0,74,0.00,,,0.00,WUHU216HW,2013-01-15 22:08:00,
2013-01-15 17:13:00,31.6,24.2,30.12,ENE,68,0.0,0.0,74,0.00,,,0.00,WUHU216HW,2013-01-15 22:13:00,
2013-01-15 17:18:00,31.6,24.2,30.12,ENE,68,0.0,0.0,74,0.00,,,0.00,WUHU216HW,2013-01-15 22:18:00,
2013-01-15 17:23:00,31.6,24.2,30.12,NE,45,0.0,0.0,74,0.00,,,0.00,WUHU216HW,2013-01-15 22:23:00,
2013-01-15 17:28:00,31.6,24.2,30.11,ENE,68,0.0,0.0,74,0.00,,,0.00,WUHU216HW,2013-01-15 22:28:00,
2013-01-15 17:34:00,31.6,24.2,30.11,NE,45,0.0,0.0,74,0.00,,,0.00,WUHU216HW,2013-01-15 22:34:00,
2013-01-15 17:39:00,31.6,24.2,30.12,NE,45,0.0,0.0,74,0.00,,,0.00,WUHU216HW,2013-01-15 22:39:00,
2013-01-15 17:44:00,31.2,23.9,30.12,ENE,68,0.0,0.0,74,0.00,,,0.00,WUHU216HW,2013-01-15 22:44:00,
2013-01-15 17:49:00,31.4,24.1,30.12,ENE,68,0.0,0.0,74,0.00,,,0.00,WUHU216HW,2013-01-15 22:49:00,
2013-01-15 17:54:00,31.2,23.9,30.11,ENE,68,0.0,0.0,74,0.00,,,0.00,WUHU216HW,2013-01-15 22:54:00,
2013-01-15 17:59:00,31.2,23.9,30.11,ENE,68,0.0,0.0,74,0.00,,,0.00,WUHU216HW,2013-01-15 22:59:00,
2013-01-15 18:04:00,31.2,23.9,30.11,East,90,2.9,2.9,74,0.00,,,0.00,WUHU216HW,2013-01-15 23:04:00,
2013-01-15 18:09:00,31.2,23.9,30.09,ESE,113,2.0,2.9,74,0.00,,,0.00,WUHU216HW,2013-01-15 23:09:00,
2013-01-15 18:14:00,31.2,23.9,30.09,ENE,68,1.7,2.9,74,0.00,,,0.00,WUHU216HW,2013-01-15 23:14:00,
2013-01-15 18:19:00,31.2,23.9,30.08,NE,45,2.0,2.0,74,0.00,,,0.00,WUHU216HW,2013-01-15 23:19:00,
2013-01-15 18:24:00,31.1,23.7,30.08,NE,45,0.0,2.0,74,0.00,,,0.00,WUHU216HW,2013-01-15 23:24:00,
2013-01-15 18:29:00,31.1,24.0,30.09,NE,45,0.0,2.0,75,0.00,,,0.00,WUHU216HW,2013-01-15 23:29:00,
2013-01-15 18:34:00,31.1,24.0,30.08,NE,45,0.0,0.0,75,0.00,,,0.00,WUHU216HW,2013-01-15 23:34:00,
2013-01-15 18:39:00,31.1,24.0,30.08,NE,45,0.0,0.0,75,0.00,,,0.00,WUHU216HW,2013-01-15 23:39:00,
2013-01-15 18:44:00,31.1,24.0,30.08,NE,45,0.0,0.0,75,0.00,,,0.00,WUHU216HW,2013-01-15 23:44:00,
2013-01-15 18:49:00,30.9,23.9,30.08,NE,45,0.0,0.0,75,0.00,,,0.00,WUHU216HW,2013-01-15 23:49:00,
2013-01-15 18:54:00,30.9,23.9,30.07,NE,45,0.0,0.0,75,0.00,,,0.00,WUHU216HW,2013-01-15 23:54:00,
2013-01-15 18:59:00,30.9,23.9,30.07,NE,45,0.0,0.0,75,0.00,,,0.00,WUHU216HW,2013-01-15 23:59:00,
2013-01-15 19:04:00,30.9,23.9,30.07,NNE,23,0.0,0.0,75,0.00,,,0.00,WUHU216HW,2013-01-16 00:04:00,
2013-01-15 19:09:00,30.9,23.9,30.07,NNE,23,0.8,0.8,75,0.00,,,0.00,WUHU216HW,2013-01-16 00:09:00,
2013-01-15 19:14:00,30.9,23.9,30.08,NNE,23,0.0,0.8,75,0.00,,,0.00,WUHU216HW,2013-01-16 00:14:00,
2013-01-15 19:19:00,30.9,23.9,30.08,NNE,23,0.0,0.0,75,0.00,,,0.00,WUHU216HW,2013-01-16 00:19:00,
2013-01-15 19:24:00,30.9,23.9,30.08,NNE,23,0.0,0.0,75,0.00,,,0.00,WUHU216HW,2013-01-16 00:24:00,
2013-01-15 19:29:00,30.9,23.9,30.08,NE,45,0.0,2.4,75,0.00,,,0.00,WUHU216HW,2013-01-16 00:29:00,
2013-01-15 19:34:00,30.9,23.9,30.08,NE,45,0.0,2.4,75,0.00,,,0.00,WUHU216HW,2013-01-16 00:34:00,
2013-01-15 19:39:00,30.9,23.9,30.08,NE,45,0.0,0.0,75,0.00,,,0.00,WUHU216HW,2013-01-16 00:39:00,
2013-01-15 19:44:00,30.9,24.2,30.07,NE,45,0.0,0.0,76,0.00,,,0.00,WUHU216HW,2013-01-16 00:44:00,
2013-01-15 19:49:00,30.9,24.2,30.06,NE,45,0.0,0.0,76,0.00,,,0.00,WUHU216HW,2013-01-16 00:49:00,
2013-01-15 19:54:00,30.9,24.2,30.07,NE,45,0.0,0.0,76,0.00,,,0.00,WUHU216HW,2013-01-16 00:54:00,
2013-01-15 19:59:00,30.9,24.2,30.07,NE,45,0.0,0.0,76,0.00,,,0.00,WUHU216HW,2013-01-16 00:59:00,
2013-01-15 20:04:00,30.9,24.2,30.07,NE,45,0.0,0.0,76,0.00,,,0.00,WUHU216HW,2013-01-16 01:04:00,
2013-01-15 20:09:00,30.9,24.2,30.07,NE,45,0.0,0.0,76,0.00,,,0.00,WUHU216HW,2013-01-16 01:09:00,
2013-01-15 20:14:00,30.9,24.2,30.06,NE,45,0.0,0.0,76,0.00,,,0.00,WUHU216HW,2013-01-16 01:14:00,
2013-01-15 20:19:00,30.9,24.5,30.05,NE,45,0.0,0.0,77,0.00,,,0.00,WUHU216HW,2013-01-16 01:19:00,
2013-01-15 20:24:00,30.9,24.5,30.06,NE,45,0.0,0.0,77,0.00,,,0.00,WUHU216HW,2013-01-16 01:24:00,
2013-01-15 20:29:00,30.9,24.5,30.07,NE,45,0.0,0.0,77,0.00,,,0.00,WUHU216HW,2013-01-16 01:29:00,
2013-01-15 20:34:00,30.9,24.5,30.06,NE,45,1.3,1.3,77,0.00,,,0.00,WUHU216HW,2013-01-16 01:34:00,
2013-01-15 20:39:00,30.9,24.5,30.06,NE,45,0.0,1.3,77,0.00,,,0.00,WUHU216HW,2013-01-16 01:39:00,
2013-01-15 20:44:00,30.9,24.5,30.05,NE,45,0.0,0.0,77,0.00,,,0.00,WUHU216HW,2013-01-16 01:44:00,
2013-01-15 20:49:00,30.9,24.5,30.05,NNE,23,0.0,0.0,77,0.00,,,0.00,WUHU216HW,2013-01-16 01:49:00,
2013-01-15 20:54:00,30.9,24.5,30.06,NNE,23,0.0,0.0,77,0.00,,,0.00,WUHU216HW,2013-01-16 01:54:00,
2013-01-15 20:59:00,30.9,24.5,30.06,NNE,23,0.0,0.0,77,0.00,,,0.00,WUHU216HW,2013-01-16 01:59:00,
2013-01-15 21:04:00,30.9,24.5,30.06,NNE,23,0.0,0.0,77,0.00,,,0.00,WUHU216HW,2013-01-16 02:04:00,
2013-01-15 21:09:00,30.9,24.5,30.05,NNE,23,0.0,0.0,77,0.00,,,0.00,WUHU216HW,2013-01-16 02:09:00,
2013-01-15 21:14:00,30.9,24.5,30.04,NNE,23,0.0,0.0,77,0.00,,,0.00,WUHU216HW,2013-01-16 02:14:00,
2013-01-15 21:19:00,30.9,24.5,30.05,NE,45,0.0,0.0,77,0.00,,,0.00,WUHU216HW,2013-01-16 02:19:00,
2013-01-15 21:24:00,30.9,24.5,30.04,ENE,68,0.0,0.0,77,0.00,,,0.00,WUHU216HW,2013-01-16 02:24:00,
2013-01-15 21:29:00,30.9,24.5,30.04,NE,45,0.0,0.0,77,0.00,,,0.00,WUHU216HW,2013-01-16 02:29:00,
2013-01-15 21:34:00,30.9,24.5,30.03,ENE,68,0.0,0.0,77,0.00,,,0.00,WUHU216HW,2013-01-16 02:34:00,
2013-01-15 21:39:00,30.9,24.5,30.03,NE,45,0.0,0.0,77,0.00,,,0.00,WUHU216HW,2013-01-16 02:39:00,
2013-01-15 21:44:00,30.9,24.5,30.03,NE,45,0.0,0.0,77,0.00,,,0.00,WUHU216HW,2013-01-16 02:44:00,
2013-01-15 21:49:00,30.9,24.5,30.03,NE,45,0.0,0.0,77,0.00,,,0.00,WUHU216HW,2013-01-16 02:49:00,
2013-01-15 21:54:00,30.9,24.8,30.03,NE,45,0.0,0.0,78,0.00,,,0.00,WUHU216HW,2013-01-16 02:54:00,
2013-01-15 21:59:00,30.9,24.8,30.03,NE,45,0.0,2.6,78,0.00,,,0.00,WUHU216HW,2013-01-16 02:59:00,
2013-01-15 22:04:00,30.9,24.8,30.03,NE,45,0.0,2.6,78,0.00,,,0.00,WUHU216HW,2013-01-16 03:04:00,
2013-01-15 22:09:00,30.9,24.8,30.02,NE,45,0.0,0.0,78,0.00,,,0.00,WUHU216HW,2013-01-16 03:09:00,
2013-01-15 22:14:00,30.9,24.8,30.02,NE,45,0.0,0.0,78,0.00,,,0.00,WUHU216HW,2013-01-16 03:14:00,
2013-01-15 22:19:00,30.9,24.8,30.03,NE,45,0.0,0.0,78,0.00,,,0.00,WUHU216HW,2013-01-16 03:19:00,
2013-01-15 22:24:00,30.9,24.8,30.03,NE,45,0.0,0.0,78,0.00,,,0.00,WUHU216HW,2013-01-16 03:24:00,
2013-01-15 22:29:00,30.9,24.8,30.03,NNE,23,0.0,0.0,78,0.00,,,0.00,WUHU216HW,2013-01-16 03:29:00,
2013-01-15 22:34:00,30.9,24.8,30.03,NNE,23,0.0,0.0,78,0.00,,,0.00,WUHU216HW,2013-01-16 03:34:00,
2013-01-15 22:39:00,30.9,24.8,30.02,NNE,23,0.0,0.0,78,0.00,,,0.00,WUHU216HW,2013-01-16 03:39:00,
2013-01-15 22:44:00,30.9,24.8,30.03,NNE,23,0.0,0.0,78,0.00,,,0.00,WUHU216HW,2013-01-16 03:44:00,
2013-01-15 22:49:00,30.9,24.8,30.02,NNE,23,0.0,1.1,78,0.00,,,0.00,WUHU216HW,2013-01-16 03:49:00,
2013-01-15 22:54:00,30.9,24.8,30.01,NNE,23,1.5,1.5,78,0.00,,,0.00,WUHU216HW,2013-01-16 03:54:00,
2013-01-15 22:59:00,30.9,24.8,30.02,NNE,23,0.0,1.5,78,0.00,,,0.00,WUHU216HW,2013-01-16 03:59:00,
2013-01-15 23:04:00,30.9,24.8,30.02,NNE,23,0.0,1.5,78,0.00,,,0.00,WUHU216HW,2013-01-16 04:04:00,
2013-01-15 23:09:00,30.9,24.8,30.02,NNE,23,0.0,2.0,78,0.00,,,0.00,WUHU216HW,2013-01-16 04:09:00,
2013-01-15 23:14:00,30.9,24.8,30.01,NNE,23,0.0,2.0,78,0.00,,,0.00,WUHU216HW,2013-01-16 04:14:00,
2013-01-15 23:19:00,30.9,24.8,30.01,NNE,23,0.0,0.0,78,0.00,,,0.00,WUHU216HW,2013-01-16 04:19:00,
2013-01-15 23:24:00,30.9,24.8,30.01,NE,45,0.0,0.0,78,0.00,,,0.00,WUHU216HW,2013-01-16 04:24:00,
2013-01-15 23:29:00,30.9,24.8,30.01,NE,45,0.0,0.0,78,0.00,,,0.00,WUHU216HW,2013-01-16 04:29:00,
2013-01-15 23:34:00,31.1,25.0,30.02,NE,45,0.0,0.0,78,0.00,,,0.00,WUHU216HW,2013-01-16 04:34:00,
2013-01-15 23:39:00,30.9,24.8,30.01,NE,45,0.0,0.0,78,0.00,,,0.00,WUHU216HW,2013-01-16 04:39:00,
2013-01-15 23:44:00,31.1,25.0,30.01,NE,45,0.0,0.0,78,0.00,,,0.00,WUHU216HW,2013-01-16 04:44:00,
2013-01-15 23:49:00,31.1,24.8,30.01,NE,45,0.0,0.0,78,0.00,,,0.00,WUHU216HW,2013-01-16 04:49:00,
2013-01-15 23:54:00,30.9,24.8,30.01,NE,45,0.0,0.0,78,0.00,,,0.00,WUHU216HW,2013-01-16 04:54:00,
2013-01-15 23:59:00,30.9,24.8,30.01,NE,45,0.0,0.0,78,0.00,,,0.00,WUHU216HW,2013-01-16 04:59:00,